To NAV CANADA Home Page Login to a new session Search on AWWS site Feedback and Comments Disclaimer Vers la page française équivalente Tips FAQ What's new on the site To the Forecasts and Observations / NOTAM section To "File a Flight Plan" website Publications and other links Update of the User's profile FIC Telephone Numbers My Weather Data Folder Route Weather Data Regional Weather Data Local Weather Data To the Forecasts and Observations / NOTAM section
Request Generated 04/30/2017 at 20:32:25 UTC . Weather information available at that time is displayed.

METAR/TAF

AUPALUK/QC    

METAR CYLA 302000Z 30014KT 15SM DRSN BKN021 M09/M13 A3010 RMK SC6
SLP199=
METAR CYLA 301900Z 29016G23KT 15SM DRSN SCT023 M09/M14 A3010 RMK SC4
SLP197=
METAR CYLA 301800Z 28019G25KT 15SM DRSN BKN020 M10/M14 A3011 RMK SC5
SLP202=

CYLA - No TAF is issued for this station

Your time UTC time
Weather data provided by Environment Canada and NAV CANADA